Powrót do katalogu

BRO-5

AktywnyNaukaSSO
NORAD 51061·PAYLOAD·🇫🇷 France

Wystrzelony Jan 13, 2022 z Cape Canaveral Space Force Station

Loading…

Następne Przeloty (najbliższe 24 godziny)

TLE

ŚwieżeSource: Space-Track

Epoka: Sep 14, 2026, 15:30 UTC

1 51061U 22002CF  26257.64600003  .00018004  00000-0  31656-3 0  9997
2 51061  97.2909 332.3027 0005744  13.4986 346.6419 15.50524936260104

Śledź BRO-5 w czasie rzeczywistym z AllMySat

Download on the App Store